Torna al catalogo

COSMOS 2251 DEB

AttivoLEO
NORAD 35835·DEBRIS·🇷🇺 Russia

Lanciato Jun 16, 1993 da Plesetsk Cosmodrome

Loading…

Prossimi Passaggi (prossime 24 ore)

TLE

In scadenzaSource: Space-Track

Epoca: Sep 11, 2026, 12:15 UTC

1 35835U 93036ATH 26254.51077428  .00000622  00000-0  42002-3 0  9999
2 35835  74.0632 169.4241 0293736 248.3083 108.6533 13.83637264654715

Traccia COSMOS 2251 DEB in tempo reale con AllMySat

Download on the App Store